Location: PSU-Greenbush Astrophysical Observatory
(37.5140°N, 94.9880°W)
Time: 12:33:26
(UTC-05:00)

CUTE 1.7 + AOD 2 - Pass Details

Date: 28 February 2020
Orbit: 593 x 612 km, 97.6° (Epoch: 05 April)

Event Time Altitude Azimuth Distance (km) Brightness Sun altitude
Rises 04:34:59 0° 31° (NNE) 2,838 ? -28.1°
Reaches altitude 10° 04:37:50 10° 52° (NE) 1,929 ? -27.6°
Maximum altitude 04:40:34 17° 93° (E) 1,527 ? -27.0°
Drops below altitude 10° 04:43:17 10° 134° (SE) 1,920 ? -26.5°
Sets 04:46:06 0° 155° (SSE) 2,816 ? -25.9°
